[[{"header":{"parameterUnit":"m.s-1","parameterCategory":1,"la1":30.2991,"la2":30.254,"lo1":-89.0895,"lo2":-89.0444,"dy":0.0017,"dx":0.0017,"nx":28,"ny":28,"refTime":"2023-10-14T09:00:00:Z","depth":0,"parameterNumber":2,"parameterNumberName":"U-component_of_WINDS"},"data":[0,0,0,0,0,0,0,0,0,0,0,0,0,0,0,0,0,0,0,0,0,0,0,0,0,0,0,0,0,0,0,0,0,0,0,0,0,0,0,0,0,0,0,0,0,0,0,0,0,0,0,0,0,0,0,0,0,0,3.1793,3.1793,0,3.1829,3.1829,3.1829,3.1789,3.1788,3.1786,3.1785,3.182,3.1822,3.1824,0,0,0,0,0,0,0,0,0,0,0,0,0,3.1689,3.1691,3.1793,3.1793,3.1794,3.1829,3.1829,3.183,3.179,3.1788,3.1786,3.1784,3.1819,3.1822,3.1824,0,0,0,0,0,0,0,0,0,0,0,0,0,3.1731,3.1692,3.1793,3.1778,3.1777,3.1828,3.1829,3.183,3.179,3.1788,3.1785,3.1783,3.1818,3.1821,3.1825,3.1892,0,0,3.1836,3.1837,0,0,0,0,0,0,0,0,3.1728,3.1734,3.178,3.1779,3.1778,3.1802,3.1805,3.185,3.179,3.1785,3.1785,3.1782,3.1816,3.1819,3.1831,3.1893,3.1895,3.1836,3.1838,3.1839,3.184,0,0,0,0,0,0,0,3.1725,3.1733,3.1807,3.1781,3.178,3.1769,3.1773,3.1814,3.1812,3.1785,3.1782,3.1787,3.1815,3.1827,3.1831,3.1895,3.1836,3.1839,3.1841,3.1842,3.2016,3.2018,0,0,0,0,0,0,3.1724,3.1731,3.1806,3.1808,3.1747,3.1773,3.1777,3.1797,3.1812,3.1812,3.1789,3.1785,3.1823,3.1827,3.1832,3.1912,3.1839,3.1843,3.1845,3.2013,3.2016,3.2019,0,0,0,0,0,0,3.1722,3.1732,3.1804,3.1769,3.1777,3.1777,3.18,3.1799,3.1811,3.1815,3.1814,3.1803,3.1821,3.1827,3.1878,3.1912,3.1844,3.1847,3.201,3.2014,3.2018,3.2072,0,0,0,0,0,0,3.172,3.1731,3.1757,3.1769,3.1779,3.1849,3.1802,3.1801,3.1818,3.1813,3.1827,3.1827,3.182,3.1873,3.1881,3.1916,3.185,3.2007,3.2012,3.2016,3.2067,3.2077,3.2085,0,0,0,0,0,3.1716,3.177,3.1758,3.1767,3.1811,3.1852,3.1857,3.1847,3.1821,3.1846,3.1849,3.1827,3.1908,3.1878,3.1887,3.1924,3.2005,3.2011,3.2016,3.2062,3.2075,3.2085,0,0,0,0,0,0,3.176,3.1771,3.1758,3.1818,3.1834,3.1845,3.1876,3.1861,3.1884,3.1879,3.1865,3.1869,3.1922,3.1928,3.1895,3.199,3.1952,3.196,3.1984,3.1996,3.2005,3.2002,3.1853,0,0,0,0,0,3.1777,3.1809,3.1817,3.1869,3.1878,3.1876,3.1893,3.1885,3.1901,3.1907,3.1913,3.1929,3.1958,3.1977,3.2004,3.2068,3.207,3.2098,3.2107,3.2115,3.2121,3.2155,3.2168,3.2037,3.2037,3.2037,0,0,3.1811,3.1822,3.1843,3.1878,3.189,3.1923,3.1882,3.1919,3.1943,3.1912,3.196,3.1966,3.1983,3.204,3.2066,3.2047,3.2158,3.2122,3.2128,3.213,3.2163,3.2175,3.2186,3.2041,3.2041,3.204,0,0,3.1892,3.1903,3.1947,3.196,3.1979,3.1977,3.1988,3.2002,3.2004,3.2052,3.203,3.2059,3.2109,3.2123,3.2136,3.2223,3.2204,3.2232,3.228,3.2314,3.2324,3.2333,3.2364,3.2375,3.2239,3.2239,3.2239,0,3.1932,3.1982,3.1972,3.2011,3.2027,3.2002,3.2047,3.206,3.2086,3.2098,3.2077,3.214,3.2149,3.221,3.2231,3.2243,3.2255,3.223,3.2324,3.2333,3.2341,3.237,3.2382,3.2242,3.2242,3.2242,3.2241,0,3.2031,3.2066,3.21,3.2126,3.2147,3.2188,3.2185,3.2207,3.2197,3.2198,3.2247,3.2259,3.2288,3.2301,3.2292,3.2361,3.2348,3.2326,3.2287,3.2357,3.2384,3.2395,3.2247,3.2246,3.2245,3.2244,0,0,3.2138,3.216,3.2172,3.2184,3.2204,3.2231,3.2272,3.2301,3.232,3.2339,3.2373,3.2417,3.2396,3.2412,3.2403,3.2433,3.2502,3.2407,3.2407,3.2424,3.2578,3.2594,3.2607,3.249,3.2492,3.2493,3.2576,0,3.2218,3.2289,3.2282,3.235,3.2382,3.236,3.2395,3.2411,3.2414,3.2441,3.2444,3.2475,3.2446,3.2455,3.2484,3.2487,3.2532,3.2481,3.252,3.2522,3.2516,3.2621,3.2638,3.2716,3.2587,3.2589,3.259,0,3.232,3.2344,3.2415,3.2431,3.2444,3.2476,3.2503,3.253,3.2547,3.2547,3.2565,3.2552,3.2594,3.2555,3.2612,3.2577,3.2593,3.2598,3.26,3.2603,3.2559,3.2626,3.2741,3.2752,3.2607,3.2605,3.2604,0,3.239,3.2441,3.249,3.2501,3.252,3.2543,3.2552,3.2568,3.2586,3.261,3.2621,3.2649,3.2664,3.2686,3.2681,3.2654,3.2739,3.27,3.2739,3.274,3.2757,3.2756,3.2875,3.2769,3.2769,3.2769,3.2769,0,3.248,3.2524,3.2522,3.2552,3.2601,3.2593,3.2642,3.2648,3.2662,3.2693,3.2676,3.2705,3.2697,3.2726,3.2723,3.277,3.2777,3.2778,3.2776,3.2779,3.2779,3.2788,3.2782,3.2772,3.2771,3.2771,3.277,0,3.2566,3.2566,3.2618,3.2633,3.2638,3.2673,3.2685,3.2714,3.2716,3.2755,3.2764,3.2767,3.28,3.2798,3.2835,3.2833,3.2891,3.2884,3.2885,3.2883,3.2923,3.2919,3.3051,3.3068,3.2952,3.2953,3.2954,0,3.2622,3.2656,3.2675,3.2695,3.2705,3.2737,3.2756,3.275,3.2771,3.2794,3.282,3.2852,3.2877,3.2932,3.2937,3.2966,3.2958,3.3003,3.2962,3.2964,3.2958,3.2955,3.2959,3.301,3.3011,3.3012,3.3013,0,3.2722,3.2721,3.2749,3.2778,3.2802,3.2824,3.2844,3.2861,3.2857,3.2881,3.2916,3.2935,3.2974,3.3006,3.3034,3.3043,3.3028,3.3026,3.3037,3.3039,3.3038,3.3039,3.2906,3.3023,3.3022,3.3021,3.3021,3.302,3.2795,3.2824,3.2842,3.2874,3.2889,3.2909,3.2936,3.2942,3.2971,3.3003,3.2998,3.3036,3.3054,3.309,3.3102,3.3132,3.3116,3.3131,3.3135,3.3138,3.3142,3.3035,3.3137,3.3137,3.3136,3.3136,3.3136,0,3.2893,3.2904,3.2934,3.2964,3.2989,3.2974,3.2996,3.3018,3.3052,3.307,3.3096,3.3136,3.3167,3.3176,3.3206,3.3228,3.3222,3.3236,3.3234,3.3236,3.3155,3.3143,3.3241,3.3241,3.3241,3.3241,3.3241,3.3241,3.2947,3.2996,3.2997,3.3053,3.3064,3.3102,3.3116,3.3134,3.3148,3.3194,3.322,3.3226,3.324,3.3271,3.33,3.3301,3.3313,3.333,3.3329,3.3253,3.3242,3.3232,3.322,3.3333,3.3333,3.3407,3.3408,3.3408]},{"header":{"parameterUnit":"m.s-1","parameterCategory":1,"la1":30.2991,"la2":30.254,"lo1":-89.0895,"lo2":-89.0444,"dy":0.0017,"dx":0.0017,"nx":28,"ny":28,"refTime":"2023-10-14T09:00:00:Z","depth":0,"parameterNumber":3,"parameterNumberName":"V-component_of_WINDS"},"data":[0,0,0,0,0,0,0,0,0,0,0,0,0,0,0,0,0,0,0,0,0,0,0,0,0,0,0,0,0,0,0,0,0,0,0,0,0,0,0,0,0,0,0,0,0,0,0,0,0,0,0,0,0,0,0,0,0,0,-6.1932,-6.1935,0,-6.2159,-6.2161,-6.2164,-6.214,-6.2136,-6.2132,-6.2129,-6.2357,-6.2366,-6.2375,0,0,0,0,0,0,0,0,0,0,0,0,0,-6.1475,-6.1484,-6.1932,-6.1935,-6.1938,-6.2158,-6.2162,-6.2165,-6.214,-6.2136,-6.2131,-6.2127,-6.2353,-6.2364,-6.2376,0,0,0,0,0,0,0,0,0,0,0,0,0,-6.1685,-6.1486,-6.1932,-6.1952,-6.1956,-6.2158,-6.2162,-6.2165,-6.2141,-6.2136,-6.213,-6.2125,-6.235,-6.2363,-6.2377,-6.2571,0,0,-6.242,-6.2426,0,0,0,0,0,0,0,0,-6.1673,-6.1701,-6.1946,-6.1951,-6.1956,-6.2116,-6.2084,-6.2301,-6.2142,-6.2071,-6.2129,-6.2123,-6.228,-6.23,-6.2354,-6.2582,-6.2592,-6.2422,-6.243,-6.2436,-6.244,0,0,0,0,0,0,0,-6.1658,-6.1692,-6.2022,-6.195,-6.1956,-6.1949,-6.1973,-6.2125,-6.2203,-6.2077,-6.2075,-6.2103,-6.2282,-6.234,-6.2359,-6.2595,-6.2421,-6.2434,-6.2442,-6.2448,-6.2995,-6.3001,0,0,0,0,0,0,-6.1639,-6.168,-6.2014,-6.2028,-6.1799,-6.1962,-6.1988,-6.207,-6.2201,-6.2216,-6.2107,-6.2101,-6.2319,-6.2343,-6.2367,-6.2604,-6.2436,-6.2449,-6.2457,-6.2989,-6.2996,-6.3003,0,0,0,0,0,0,-6.163,-6.1669,-6.2005,-6.1854,-6.1896,-6.1975,-6.2067,-6.2077,-6.2136,-6.2224,-6.2237,-6.2153,-6.2316,-6.2347,-6.2521,-6.2612,-6.2456,-6.2468,-6.2982,-6.2991,-6.3,-6.3079,0,0,0,0,0,0,-6.1617,-6.1666,-6.1741,-6.1856,-6.1904,-6.2157,-6.2072,-6.2085,-6.216,-6.2154,-6.2271,-6.2285,-6.2314,-6.2501,-6.2535,-6.2628,-6.2479,-6.2974,-6.2986,-6.2997,-6.3069,-6.309,-6.3108,0,0,0,0,0,-6.16,-6.1753,-6.1745,-6.1786,-6.2,-6.2163,-6.219,-6.2222,-6.2168,-6.2244,-6.2301,-6.2281,-6.2596,-6.2519,-6.2558,-6.2656,-6.2969,-6.2983,-6.2996,-6.306,-6.3086,-6.3108,0,0,0,0,0,0,-6.1646,-6.1769,-6.1761,-6.1956,-6.2049,-6.2158,-6.2255,-6.2248,-6.2357,-6.2347,-6.238,-6.2407,-6.2583,-6.2637,-6.2548,-6.2851,-6.2775,-6.2797,-6.281,-6.2835,-6.2855,-6.2838,-6.2491,0,0,0,0,0,-6.1679,-6.1801,-6.1901,-6.2064,-6.2111,-6.2175,-6.2247,-6.2264,-6.2361,-6.24,-6.247,-6.2564,-6.2684,-6.2762,-6.2878,-6.3076,-6.3102,-6.3163,-6.3183,-6.3198,-6.3217,-6.3328,-6.3356,-6.3048,-6.3048,-6.3048,0,0,-6.1747,-6.183,-6.1905,-6.2075,-6.2149,-6.2275,-6.2208,-6.2344,-6.2437,-6.242,-6.259,-6.2644,-6.2751,-6.2939,-6.3025,-6.2989,-6.3308,-6.3216,-6.3228,-6.3238,-6.3345,-6.3374,-6.34,-6.3057,-6.3056,-6.3054,0,0,-6.1937,-6.2012,-6.2156,-6.2232,-6.2346,-6.2388,-6.2423,-6.2534,-6.257,-6.2741,-6.2731,-6.2842,-6.3048,-6.3125,-6.3191,-6.3412,-6.3398,-6.3449,-6.3551,-6.3658,-6.3682,-6.3704,-6.3784,-6.3812,-6.3467,-6.3467,-6.3467,0,-6.2008,-6.2198,-6.223,-6.2369,-6.2444,-6.2436,-6.2582,-6.2654,-6.2799,-6.2851,-6.2809,-6.3069,-6.314,-6.3346,-6.3401,-6.3454,-6.3495,-6.3436,-6.3677,-6.3699,-6.3719,-6.3796,-6.3826,-6.3473,-6.3472,-6.3472,-6.3471,0,-6.2281,-6.2413,-6.2515,-6.2658,-6.2745,-6.2886,-6.2939,-6.3022,-6.3032,-6.3078,-6.3252,-6.3338,-6.3471,-6.3521,-6.3531,-6.373,-6.3704,-6.3669,-6.3593,-6.3754,-6.3827,-6.3856,-6.3481,-6.3479,-6.3477,-6.3476,0,0,-6.2505,-6.2665,-6.2703,-6.2768,-6.2894,-6.2996,-6.3136,-6.3269,-6.334,-6.3441,-6.356,-6.3735,-6.3704,-6.3779,-6.3797,-6.3891,-6.4063,-6.3845,-6.3848,-6.3883,-6.4288,-6.4315,-6.4349,-6.4054,-6.4059,-6.4064,-6.428,0,-6.2709,-6.296,-6.2993,-6.3215,-6.3338,-6.3333,-6.3455,-6.3545,-6.3592,-6.3702,-6.3753,-6.3878,-6.3826,-6.3872,-6.3965,-6.4022,-6.4144,-6.4007,-6.4165,-6.417,-6.4139,-6.4386,-6.4415,-6.4615,-6.4308,-6.4313,-6.4317,0,-6.298,-6.309,-6.3325,-6.3435,-6.3488,-6.3598,-6.3723,-6.3828,-6.393,-6.3957,-6.4043,-6.4049,-6.4194,-6.4112,-6.4312,-6.4218,-6.4284,-6.4322,-6.433,-6.4347,-6.4254,-6.4411,-6.4679,-6.4709,-6.4361,-6.4358,-6.4355,0,-6.3122,-6.3329,-6.3497,-6.3553,-6.3685,-6.3763,-6.3821,-6.3918,-6.3996,-6.4104,-6.4155,-6.4278,-6.4346,-6.444,-6.448,-6.4416,-6.4679,-6.4599,-6.4705,-6.4705,-6.4762,-6.4758,-6.5045,-6.4803,-6.4802,-6.4801,-6.4801,0,-6.3347,-6.3491,-6.3563,-6.3666,-6.3828,-6.3864,-6.4023,-6.4078,-6.4164,-6.4278,-6.4279,-6.4385,-6.4431,-6.4544,-6.4575,-6.4737,-6.4767,-6.4793,-6.48,-6.4794,-6.4791,-6.4839,-6.4826,-6.4809,-6.4808,-6.4806,-6.4805,0,-6.3534,-6.3588,-6.377,-6.3881,-6.3912,-6.4027,-6.4121,-6.4221,-6.4267,-6.4411,-6.4446,-6.4518,-6.4652,-6.4701,-6.4862,-6.4883,-6.5071,-6.5066,-6.5038,-6.504,-6.5144,-6.5134,-6.5474,-6.552,-6.5245,-6.5248,-6.525,0,-6.3674,-6.3785,-6.3909,-6.3986,-6.4048,-6.4171,-6.4251,-6.4291,-6.4375,-6.45,-6.4585,-6.4718,-6.4827,-6.504,-6.5106,-6.523,-6.5228,-6.5339,-6.5247,-6.5238,-6.5232,-6.5225,-6.5237,-6.5356,-6.5359,-6.5361,-6.5363,0,-6.3918,-6.394,-6.4056,-6.4182,-6.4278,-6.4379,-6.4477,-6.454,-6.4594,-6.4688,-6.4825,-6.491,-6.5076,-6.5209,-6.5336,-6.5395,-6.5389,-6.5391,-6.5423,-6.5418,-6.5398,-6.5412,-6.5086,-6.5383,-6.5381,-6.538,-6.5379,-6.5378,-6.4087,-6.4186,-6.4289,-6.4419,-6.4497,-6.4589,-6.4689,-6.4748,-6.4864,-6.5004,-6.502,-6.5168,-6.5268,-6.5439,-6.5503,-6.5619,-6.5589,-6.5634,-6.5646,-6.5657,-6.5666,-6.5379,-6.5642,-6.5642,-6.5641,-6.5641,-6.564,0,-6.4333,-6.4399,-6.4518,-6.4656,-6.4758,-6.4744,-6.4852,-6.4938,-6.5069,-6.5163,-6.5271,-6.543,-6.5558,-6.5635,-6.5764,-6.5842,-6.5843,-6.5875,-6.587,-6.5884,-6.5684,-6.5645,-6.5872,-6.5872,-6.5872,-6.5872,-6.5872,-6.5872,-6.4472,-6.464,-6.4674,-6.488,-6.4945,-6.5092,-6.5155,-6.524,-6.5315,-6.5493,-6.5601,-6.565,-6.5738,-6.5873,-6.5991,-6.601,-6.6058,-6.6093,-6.611,-6.5922,-6.5898,-6.5875,-6.5838,-6.6103,-6.6103,-6.63,-6.6302,-6.6303]}]]